Location: Dulzura
(32.6442°N, 116.7814°W)
Time: 14:00:32
(UTC+00:00)

OAO 2 Rocket - Pass Details

Date: 07 December 2021
Orbit: 676 x 745 km, 35.0° (Epoch: 19 January)

Event Time Altitude Azimuth Distance (km) Brightness Sun altitude
Exits shadow 12:58:52 20° 226° (SW) 1,647 4.9 -20.0°
Maximum altitude 13:02:19 53° 157° (SSE) 885 4.0 -19.3°
Drops below altitude 10° 13:07:18 10° 81° (E) 2,181 6.8 -18.3°
Sets 13:09:44 0° 76° (ENE) 3,090 7.7 -17.8°
